Dewpoint
7 6 6 6 6 6 8 10 10 10 12 13 13 11 9 11 11 12 12 11 10 9 11 11 11 12 13 13 14 16 17 17 16 15 12 11 11 12 10 1 4 13
7 6 5 5 5 5 5 7 8 9 11 13 14 13 10 10 11 12 13 13 12 9 9 10 11 11 12 13 14 15 16 16 16 15 13 12 12 12 11 5 2 10
5 5 5 4 4 4 4 5 6 8 11 12 14 15 14 12 12 12 13 14 14 12 10 9 10 11 11 12 13 13 14 15 15 16 14 13 13 12 12 11 8 6
3 3 4 3 3 3 3 4 4 7 11 13 13 14 15 15 14 13 13 14 14 13 11 9 9 10 11 12 12 12 13 14 14 15 15 14 14 13 11 13 13 8
3 3 4 4 4 4 3 4 4 6 9 12 13 13 13 14 15 14 13 13 13 13 12 10 8 8 9 10 12 12 12 12 13 14 15 15 14 14 12 12 14 13
3 3 4 4 4 4 5 5 5 7 8 10 12 12 12 12 14 14 14 14 13 13 13 11 9 8 8 9 10 12 11 11 11 12 14 15 14 14 14 11 11 13
3 3 4 4 4 5 5 6 6 8 9 10 11 11 11 11 11 12 13 15 14 13 13 12 10 8 7 7 8 10 11 11 11 11 12 15 15 14 14 12 9 10
3 3 4 4 5 5 5 6 7 8 8 10 11 11 11 10 10 10 12 14 15 15 14 13 11 9 8 7 7 8 9 10 11 11 12 14 16 15 14 13 11 8
3 3 4 4 4 5 5 5 7 8 8 10 11 12 12 11 10 10 10 11 13 15 15 14 12 11 10 9 8 6 7 8 9 11 12 13 14 15 15 14 13 10
5 4 3 4 4 4 5 5 5 6 7 9 10 12 13 11 10 10 10 9 11 13 14 14 13 13 12 11 10 8 7 7 8 9 11 12 13 13 14 14 13 12
4 5 3 3 3 4 4 4 5 6 7 8 9 11 12 12 11 11 10 10 9 10 12 13 13 13 13 12 11 10 8 7 7 8 10 12 12 12 13 13 13 13
2 4 4 2 2 3 3 3 5 7 8 8 8 9 10 12 12 10 9 9 8 8 10 12 12 13 13 12 12 11 11 8 7 8 8 10 11 11 12 12 13 13
2 2 4 4 3 3 4 5 7 9 10 10 9 9 10 12 12 11 8 8 7 7 8 10 12 12 13 12 12 12 12 11 9 8 8 8 9 10 12 13 13 13
5 2 3 4 3 3 5 7 9 11 12 12 12 13 13 13 13 12 10 8 8 8 7 9 11 12 13 13 12 12 13 12 10 9 9 9 9 9 11 13 13 13
10 7 3 2 3 4 4 6 9 11 12 13 13 14 14 13 14 14 13 12 10 9 8 9 10 11 12 12 12 12 13 13 12 11 11 11 10 9 10 11 13 13
14 11 8 5 4 4 4 5 7 10 11 12 13 14 14 14 14 15 15 15 14 12 11 10 11 11 10 10 11 11 12 13 13 12 12 12 12 11 10 10 11 13
15 14 12 9 6 4 5 6 7 9 10 11 13 14 14 14 14 15 16 16 16 15 14 12 12 11 9 8 8 9 10 12 12 12 12 12 12 12 12 12 11 12
16 15 14 12 9 7 6 6 7 8 10 11 12 13 14 14 14 14 15 16 17 17 17 15 13 11 9 8 7 7 8 10 11 12 12 13 12 12 12 13 13 13
17 16 15 13 11 9 8 8 8 9 9 10 10 12 13 14 14 13 14 14 15 17 17 17 16 13 11 10 10 8 8 8 9 11 11 12 12 12 12 13 13 13
17 17 16 15 14 12 12 11 10 9 9 10 11 12 12 13 13 13 13 14 14 15 16 17 17 16 15 13 12 10 10 9 9 10 11 11 12 12 12 12 13 13
17 17 17 16 16 15 14 13 12 10 10 11 12 13 12 12 13 14 14 14 14 15 15 16 16 17 17 16 14 13 12 11 11 11 11 12 12 13 13 13 13 13
17 18 17 17 17 16 16 15 14 13 12 13 13 14 14 14 13 14 15 15 15 15 15 15 15 16 17 17 16 16 15 14 13 13 13 12 13 14 14 14 14 14
17 17 18 17 17 17 17 16 16 15 15 15 15 15 15 15 15 14 15 15 15 15 15 14 15 16 17 17 17 17 17 16 15 15 14 14 13 14 15 15 15 15
16 17 17 17 17 17 17 17 17 16 16 16 16 16 16 16 16 16 16 15 15 15 15 15 15 15 16 17 18 18 18 18 17 16 16 15 15 15 16 16 16 16
16 16 17 17 18 18 18 17 17 17 17 17 16 16 16 17 17 18 17 17 17 17 17 17 16 16 16 17 18 18 18 19 18 18 17 17 17 17 16 16 16 17
16 16 17 18 18 18 18 18 17 17 17 17 17 17 17 17 17 18 18 18 19 18 18 18 17 17 17 16 17 18 18 18 18 19 18 18 18 18 17 17 17 17
Wind_Speed
36 35 35 34 33 33 32 31 30 29 28 28 28 27 27 26 24 22 22 22 21 20 20 19 19 17 16 15 16 16 16 15 15 15 14 15 16 14 14 16 17 16
38 37 36 35 34 34 34 33 32 31 30 28 27 26 26 25 25 23 22 22 22 21 20 20 20 19 18 18 17 17 18 17 16 16 16 16 16 15 14 16 16 18
40 39 38 37 36 36 35 34 34 33 31 29 28 27 25 24 25 25 24 24 23 22 21 20 20 21 20 20 19 18 19 19 18 17 17 17 17 16 16 16 16 17
41 40 40 39 38 37 36 36 36 35 33 31 30 29 26 25 24 25 26 25 26 25 24 22 21 21 21 21 21 20 20 20 19 19 19 18 18 17 17 17 17 18
42 41 41 40 40 39 38 38 37 36 35 33 31 30 29 27 26 25 25 26 27 27 26 24 23 22 22 21 22 22 22 21 21 21 21 21 20 19 18 18 19 20
44 43 43 42 41 40 40 39 39 38 37 35 33 31 30 29 28 27 26 27 27 28 27 26 25 24 23 23 23 23 23 23 22 23 23 23 23 22 21 21 21 22
45 44 44 43 43 42 42 41 40 39 37 36 35 34 32 31 31 30 29 28 28 28 28 28 27 26 26 26 25 25 24 24 24 25 25 25 25 25 24 23 23 24
46 45 45 44 44 43 43 42 40 39 38 37 35 35 34 33 32 32 31 30 29 29 29 29 28 28 28 28 28 27 26 26 26 27 27 27 27 28 28 26 24 25
46 46 46 45 45 45 45 44 42 41 39 38 37 35 35 35 34 33 33 32 31 31 30 30 30 30 30 30 31 30 29 28 28 28 29 29 29 30 29 28 27 27
47 47 47 46 47 47 46 45 45 44 42 40 39 37 36 35 35 34 33 34 33 33 33 32 32 32 32 32 32 32 31 30 29 29 30 31 30 30 30 30 29 29
48 48 48 47 47 47 47 46 46 45 44 42 41 39 37 36 36 36 35 35 35 35 35 34 34 33 33 33 34 34 33 33 31 31 31 32 32 31 31 31 31 31
49 49 49 48 47 47 47 46 46 45 44 43 42 41 39 37 37 37 37 37 37 37 36 36 35 35 35 35 35 35 35 34 34 33 33 33 33 33 32 32 32 32
50 49 48 48 48 47 46 45 45 44 43 42 41 40 40 38 38 39 39 39 39 38 38 38 37 36 36 37 36 36 36 36 35 35 34 34 34 34 33 33 33 33
48 48 48 48 47 47 46 45 44 43 41 40 39 39 39 38 39 39 40 40 40 40 39 39 38 38 38 38 38 38 37 37 37 36 36 36 36 35 35 35 35 34
45 46 46 47 47 47 46 45 44 43 42 40 40 39 39 38 37 38 38 40 40 41 40 40 40 41 40 40 40 40 39 39 38 38 37 37 37 37 37 37 36 35
43 44 44 45 46 46 46 46 45 44 43 42 42 41 40 39 37 36 37 39 40 41 41 42 42 42 42 42 42 41 41 40 40 39 39 39 39 39 39 39 38 37
42 43 43 44 45 46 46 46 45 45 44 44 44 43 42 40 39 38 37 38 39 41 42 43 43 44 44 43 43 42 41 41 41 41 41 41 41 41 41 40 40 39
44 44 44 43 44 44 45 45 45 45 45 45 45 44 43 42 41 41 40 38 38 40 41 43 43 44 44 44 44 43 42 41 42 42 42 43 43 43 42 42 41 41
44 44 44 44 44 44 44 45 45 46 46 46 46 45 44 44 44 44 43 42 41 41 41 42 42 43 43 44 44 43 43 42 42 43 44 44 45 45 44 44 43 43
44 45 45 45 44 44 44 45 46 46 46 46 46 45 45 46 46 46 45 45 44 44 44 43 43 42 43 43 43 43 42 42 42 44 45 45 46 46 46 46 46 45
43 44 44 44 44 44 44 45 46 47 46 46 45 45 46 47 47 47 47 47 46 46 46 46 45 44 44 44 44 42 42 41 42 43 45 47 47 47 47 47 47 46
42 42 43 44 44 44 45 46 46 46 46 45 45 45 45 46 47 47 47 47 47 46 47 48 48 47 46 46 45 43 42 41 41 43 45 47 48 48 48 47 47 46
42 42 42 43 43 44 46 46 46 45 44 44 44 44 44 45 47 47 47 48 48 48 49 50 50 49 48 47 46 44 43 42 42 42 44 47 49 49 49 48 47 47
41 41 41 42 43 44 45 45 44 43 43 43 43 43 44 44 44 45 46 47 48 49 50 51 50 49 48 47 46 44 44 44 44 43 44 46 49 50 49 48 48 49
40 40 41 42 43 43 43 42 42 42 41 42 42 43 43 41 39 39 41 43 45 46 47 48 48 48 48 47 46 45 44 44 44 43 45 47 49 50 49 49 49 49
37 39 40 40 40 41 41 40 39 40 40 40 40 41 42 40 38 37 37 38 39 40 42 44 45 44 45 46 46 45 45 45 44 45 48 48 48 48 49 50 50 50
Wind_Direction
218 218 219 219 219 220 220 221 224 227 223 220 223 226 227 229 231 229 228 231 233 227 224 226 226 224 223 222 219 216 218 223 226 227 225 226 234 239 235 218 195 187
220 220 221 221 222 223 224 224 225 228 228 225 224 228 232 232 230 230 229 230 235 235 227 226 228 228 226 224 221 218 219 223 225 227 228 230 234 237 233 222 204 189
220 221 222 222 223 224 225 226 227 227 228 228 225 224 229 232 231 228 227 227 232 237 235 230 229 230 229 227 224 222 222 226 226 226 230 232 236 238 232 222 213 201
220 220 222 222 223 224 225 226 227 226 226 227 227 224 222 227 231 229 227 225 228 234 238 237 233 231 231 230 228 227 226 228 229 229 231 233 238 241 235 225 219 216
220 219 220 221 222 224 225 226 228 227 225 226 228 228 223 222 227 231 230 226 226 230 235 239 237 234 234 233 232 231 229 230 230 231 233 234 237 240 238 232 223 221
220 219 220 221 221 223 225 226 227 226 226 226 227 230 229 225 224 228 231 229 227 228 230 234 238 236 236 236 234 234 233 233 232 232 234 235 236 239 239 237 231 222
220 220 220 221 222 223 225 226 227 226 227 228 228 230 232 230 228 227 228 230 230 229 228 232 237 238 238 237 235 235 234 234 234 233 234 233 234 237 238 239 238 228
222 222 221 222 222 223 224 225 226 226 227 227 228 230 231 231 232 230 227 228 229 231 230 231 235 237 237 238 237 236 235 233 233 232 232 231 230 234 239 239 239 236
222 223 223 223 223 224 225 225 227 227 228 227 226 228 229 230 233 232 231 230 229 231 232 231 233 235 236 238 239 239 238 236 234 233 231 231 231 232 237 238 236 237
221 223 224 224 224 225 226 227 229 230 230 229 227 227 228 231 233 233 234 235 233 231 232 232 232 233 234 235 238 240 241 239 237 236 233 233 235 235 236 238 237 237
221 223 225 226 226 226 228 228 230 231 231 231 230 228 229 231 233 233 234 236 236 233 233 234 233 233 233 234 236 239 241 242 240 238 237 236 238 239 238 241 241 240
223 223 225 227 227 227 228 229 230 230 232 233 233 231 230 229 231 234 234 235 238 237 235 235 235 233 234 235 236 237 239 242 241 240 240 240 240 240 240 241 243 242
223 223 223 225 228 228 227 227 228 228 229 231 234 233 230 228 229 233 236 237 239 240 238 237 237 235 235 236 236 236 237 239 240 240 240 241 241 241 240 240 242 243
221 223 223 223 226 228 226 225 224 224 224 226 229 231 229 228 228 231 236 238 238 240 240 239 238 237 236 236 237 236 235 237 239 240 239 239 241 241 240 238 240 243
218 221 223 224 224 226 226 225 223 223 222 222 224 227 229 229 228 228 232 236 237 239 241 240 239 239 238 237 237 236 234 234 236 239 238 238 239 240 241 240 239 241
217 219 222 223 223 225 227 226 224 223 222 221 221 225 229 231 229 226 228 233 235 237 239 240 239 240 241 241 240 240 238 235 235 236 237 237 238 239 240 240 239 240
218 219 221 222 222 224 226 226 224 223 223 223 222 223 226 230 231 227 226 230 234 236 238 240 240 241 243 245 245 244 242 239 237 237 237 237 238 238 239 239 239 238
218 219 220 222 223 223 224 225 225 223 223 223 223 223 223 226 230 230 228 227 231 235 238 240 243 245 246 247 247 247 245 243 241 240 238 237 237 238 239 239 238 238
216 218 220 222 224 224 224 224 224 224 223 223 224 224 223 224 228 231 231 229 229 232 236 239 243 246 248 249 248 248 247 245 243 242 241 239 238 238 239 239 238 238
215 217 219 221 223 224 223 223 224 225 225 224 224 223 223 225 227 229 231 232 230 231 234 238 240 243 247 249 249 249 248 246 244 243 243 242 241 240 240 240 239 239
215 215 218 220 222 223 223 224 225 226 226 224 223 223 224 226 227 228 230 232 232 232 233 237 240 242 244 247 249 248 248 246 245 243 242 242 243 242 242 242 241 240
215 215 216 219 221 222 223 224 225 226 226 225 223 223 225 226 227 229 230 232 233 233 234 237 240 241 243 245 247 247 246 246 245 242 241 241 241 241 241 242 242 241
216 215 216 218 220 222 224 225 225 225 225 225 223 223 225 227 228 230 232 233 234 235 236 238 240 240 242 244 245 245 245 245 245 243 242 241 240 240 240 241 242 242
216 217 218 219 221 224 226 226 226 227 227 226 226 226 227 229 231 232 233 235 236 237 238 240 241 241 242 243 243 243 244 244 245 245 244 244 241 239 239 240 242 243
217 218 220 221 223 225 227 229 229 230 230 229 229 230 230 230 231 233 234 235 237 238 240 242 243 243 243 244 243 243 243 244 244 244 245 246 243 240 239 240 241 242
218 219 221 222 223 225 228 230 231 231 231 232 232 232 232 231 230 232 234 235 236 237 240 243 244 244 244 245 245 244 243 244 244 243 244 244 243 242 241 241 241 241
Height
1521 1523 1526 1528 1531 1533 1535 1537 1538 1540 1542 1544 1545 1547 1548 1550 1552 1554 1555 1556 1558 1560 1562 1563 1565 1566 1567 1568 1570 1571 1571 1572 1572 1573 1574 1574 1575 1576 1577 1578 1579 1580
1517 1520 1523 1525 1527 1530 1532 1534 1536 1537 1539 1541 1543 1545 1547 1549 1550 1552 1553 1554 1556 1558 1560 1561 1563 1564 1565 1566 1568 1569 1570 1570 1571 1572 1572 1573 1573 1574 1575 1576 1577 1578
1514 1516 1519 1521 1524 1526 1529 1531 1533 1535 1537 1539 1541 1543 1545 1546 1548 1550 1551 1553 1554 1555 1557 1559 1560 1562 1563 1565 1566 1567 1568 1569 1570 1570 1571 1571 1572 1573 1574 1575 1575 1577
1509 1512 1515 1517 1520 1523 1525 1528 1530 1532 1534 1536 1538 1540 1542 1544 1545 1547 1549 1551 1552 1553 1555 1557 1558 1560 1561 1563 1564 1565 1566 1567 1568 1569 1569 1570 1570 1571 1572 1573 1574 1575
1505 1508 1511 1514 1517 1520 1522 1524 1526 1528 1531 1533 1535 1537 1540 1542 1543 1544 1546 1548 1550 1551 1552 1554 1556 1557 1559 1560 1562 1563 1564 1565 1566 1567 1568 1568 1569 1569 1570 1571 1572 1573
1501 1504 1507 1510 1513 1516 1518 1520 1523 1525 1528 1530 1532 1534 1537 1539 1541 1542 1543 1545 1547 1549 1550 1551 1553 1555 1556 1558 1559 1560 1562 1563 1564 1565 1566 1566 1567 1567 1568 1569 1570 1571
1497 1500 1504 1507 1510 1513 1515 1517 1520 1522 1525 1527 1529 1531 1533 1536 1538 1539 1541 1542 1544 1546 1547 1549 1550 1552 1553 1554 1556 1557 1559 1560 1561 1562 1563 1564 1565 1565 1566 1567 1567 1568
1494 1497 1500 1503 1506 1509 1511 1514 1516 1519 1521 1524 1526 1528 1530 1532 1534 1536 1538 1540 1541 1543 1544 1546 1547 1548 1550 1551 1552 1554 1555 1557 1558 1559 1560 1561 1562 1562 1563 1564 1565 1565
1490 1493 1497 1500 1502 1505 1507 1510 1513 1515 1518 1520 1522 1525 1527 1529 1531 1533 1535 1537 1538 1539 1541 1543 1544 1545 1546 1547 1548 1550 1551 1553 1554 1555 1556 1558 1559 1559 1560 1561 1562 1562
1487 1490 1493 1495 1498 1501 1503 1507 1509 1512 1514 1517 1519 1522 1524 1526 1528 1530 1532 1533 1535 1536 1537 1539 1540 1541 1543 1544 1545 1546 1548 1549 1551 1552 1552 1554 1555 1556 1557 1558 1559 1559
1483 1486 1488 1491 1494 1497 1500 1503 1506 1508 1511 1513 1516 1518 1520 1522 1524 1526 1528 1529 1531 1532 1533 1535 1537 1538 1539 1541 1542 1542 1544 1546 1547 1549 1550 1551 1552 1553 1554 1555 1556 1556
1479 1482 1484 1487 1491 1494 1497 1500 1503 1505 1507 1509 1512 1514 1517 1519 1520 1522 1523 1525 1527 1529 1530 1531 1533 1535 1535 1537 1538 1539 1540 1542 1544 1546 1547 1548 1549 1550 1551 1552 1553 1554
1475 1478 1481 1484 1487 1490 1493 1496 1499 1502 1504 1506 1508 1510 1513 1515 1516 1518 1519 1521 1523 1525 1526 1528 1529 1531 1532 1533 1534 1536 1537 1538 1540 1542 1543 1545 1545 1546 1548 1549 1549 1551
1470 1474 1477 1480 1483 1486 1490 1493 1495 1498 1500 1502 1504 1506 1508 1511 1513 1514 1516 1517 1519 1520 1522 1524 1525 1526 1527 1528 1530 1532 1533 1534 1536 1537 1539 1540 1542 1543 1544 1545 1545 1546
1467 1470 1473 1477 1480 1482 1486 1488 1491 1494 1497 1499 1501 1502 1504 1507 1509 1511 1512 1513 1515 1516 1518 1519 1520 1521 1522 1523 1525 1527 1529 1530 1532 1533 1535 1536 1537 1538 1539 1540 1541 1542
1465 1467 1470 1473 1476 1478 1481 1484 1487 1490 1493 1496 1498 1499 1501 1503 1506 1508 1509 1510 1511 1512 1513 1514 1515 1516 1517 1518 1520 1522 1525 1526 1528 1529 1531 1532 1533 1534 1535 1536 1536 1537
1461 1464 1466 1469 1472 1475 1477 1480 1484 1486 1489 1491 1494 1496 1497 1499 1502 1504 1505 1506 1507 1508 1509 1509 1510 1510 1512 1513 1515 1518 1520 1522 1524 1525 1526 1527 1528 1529 1530 1531 1532 1533
1458 1460 1463 1465 1468 1471 1473 1476 1480 1482 1485 1487 1489 1491 1494 1496 1498 1499 1501 1502 1503 1503 1503 1504 1504 1506 1507 1508 1510 1513 1516 1518 1519 1520 1521 1522 1523 1524 1525 1526 1528 1529
1455 1457 1459 1462 1464 1467 1470 1473 1475 1478 1480 1482 1484 1487 1491 1492 1493 1494 1496 1498 1499 1499 1499 1499 1500 1501 1502 1503 1505 1508 1510 1513 1515 1516 1516 1516 1517 1518 1520 1521 1522 1524
1451 1453 1456 1459 1461 1464 1466 1468 1470 1472 1475 1478 1481 1484 1486 1487 1488 1490 1491 1493 1494 1495 1495 1495 1495 1496 1497 1498 1500 1502 1505 1508 1510 1511 1511 1511 1512 1513 1514 1515 1517 1519
1447 1450 1453 1456 1458 1461 1463 1464 1466 1468 1471 1474 1477 1479 1481 1482 1484 1485 1486 1488 1489 1491 1492 1491 1491 1492 1493 1493 1494 1497 1500 1502 1504 1506 1506 1506 1507 1507 1509 1510 1512 1513
1443 1446 1449 1452 1455 1457 1459 1460 1462 1464 1467 1470 1473 1475 1477 1478 1480 1481 1482 1483 1484 1486 1487 1487 1486 1488 1488 1488 1490 1492 1495 1497 1499 1500 1501 1501 1501 1502 1503 1504 1506 1508
1440 1443 1445 1448 1451 1453 1454 1456 1459 1461 1464 1467 1469 1471 1473 1474 1476 1477 1478 1479 1480 1481 1481 1481 1482 1484 1485 1485 1487 1489 1491 1493 1494 1495 1496 1496 1496 1497 1498 1500 1501 1503
1437 1440 1443 1445 1447 1448 1450 1453 1456 1459 1461 1463 1465 1467 1469 1470 1472 1473 1474 1475 1475 1476 1476 1477 1479 1481 1482 1483 1484 1486 1487 1488 1489 1491 1492 1491 1492 1493 1495 1496 1496 1497
1435 1437 1439 1441 1443 1446 1448 1450 1453 1456 1458 1460 1462 1464 1466 1468 1469 1470 1470 1471 1471 1472 1473 1473 1475 1477 1478 1479 1480 1482 1483 1483 1485 1487 1486 1486 1487 1489 1491 1491 1492 1492
1433 1435 1436 1439 1441 1444 1446 1448 1450 1453 1455 1457 1458 1460 1462 1464 1466 1466 1467 1467 1468 1469 1469 1470 1471 1473 1474 1475 1476 1478 1479 1480 1482 1482 1480 1480 1483 1485 1486 1486 1487 1487